User: anonymous   Login
Location: Unspecified
(0.0000°N, 0.0000°E)
Time: 14:01:17
(UTC+00:00)
Language:

MTI - Orbit

View from above orbital plane
View from above orbital plane
View from above satellite
View from above satellite

Ground track
Ground track

The orbit data is extracted from the following two-line orbital elements,

1 26102U 00014A   18051.13562753  .00003816  00000-0  71181-4 0  9993
2 26102  97.5806 239.3199 0009142  90.4725  41.9888 15.49447333992884
Epoch (UTC): 20 February 2018 03:15:18
Eccentricity: 0.0009142
inclination: 97.5806°
perigee height: 412 km
apogee height: 424 km
right ascension of ascending node: 239.3199°
argument of perigee: 90.4725°
revolutions per day: 15.49447333
mean anomaly at epoch: 41.9888°
orbit number at epoch: 99288

The dashed part of the orbit path shows where the satellite is in the earth's shadow,  

DLR